Location: Newark
(7.0858°N, 171.3717°E)
Time: 09:23:10
(UTC+00:00)

S-56A Canister/Altair - Pass Details

Date: 28 November 2020
Orbit: 633 x 2499 km, 38.9° (Epoch: 27 January)

Event Time Altitude Azimuth Distance (km) Brightness Sun altitude
Rises 14:25:51 0° 335° (NNW) 3,135 - -57.0°
Reaches altitude 10° 14:29:31 10° 2° (N) 2,060 - -56.2°
Maximum altitude 14:31:50 14° 33° (NNE) 1,776 - -55.7°
Drops below altitude 10° 14:34:07 10° 65° (ENE) 2,000 - -55.2°
Sets 14:37:33 0° 92° (E) 2,973 - -54.4°
